STARLINK-32082, 60346

Orbit data source: Space-Track

STARLINK-32082, 60346 is a payload satellite owned by SpaceX/Seattle (US) in LEO that was launched on Fri, 02 Aug 2024 UTC via an FALCON 9 launch vehicle from the Air Force Eastern Test Range (AFETR). Payload-class satellites include a variety of spacecraft equipped with specific instruments for various scientific and technological missions. These include communications satellites like Starlink; space stations such as the ISS; scientific satellites like the Hubble; Earth observation satellites from companies like Planet Labs, Umbra, and HawkEye 360; GPS; miniature CubeSats for education and research; and military/defense satellites.

Loading next visibility...
Identifier
60346, 2024-136T
Orbit
LEO
Country
Flag of USUS
Related business
Manufacturer
SpaceX/Seattle
Mission
Operational Commercial Communications
Bus & Motor
STARLINK V2M, Unknown motor
Mass
730 kg wet, ~700 kg dry
Launch date (UTC)
2024-08-02 (1 year ago)
Launch vehicle
FALCON 9
Launch site
Air Force Eastern Test Range (AFETR)
Object type
Payload
Rocket body
Debris
Shape & HBR
Box + 2 Pan, 14.5 m
Radar Cross Section
33.884 m², Large (>1 m²)

Expand to show TLE details & history
Last TLE update: 21 hours ago

TLE from 21 hours ago
0 STARLINK-32082
1 60346U 24136T   25259.47513156 -.00001922  00000-0 -52834-4 0  9992
2 60346  53.1595 164.7216 0001191  81.4809 278.6327 15.30177965 62993
Epoch: 2025-09-16T11:24Z
TLE epoch observation values (Epoch: 2025-09-16T11:24:11.366Z)
Latitude
-0.00001°
Longitude
-1.99067°
Altitude
476.058 km
Speed
7.629 km/s
True Right ascension
10h 58m 53s
True Declination
0° 00' 00"
Sunlit
Object was in daylight at epoch
Visualization orbit readout
Latitude
Unknown
Longitude
Unknown
Altitude
Unknown
Speed
Unknown
Apparent Right ascension
Unknown
Apparent Declination
Unknown
Sunlit
N/A
Visualization observer readout
Local Sidereal Time
00:51:19
Azimuth
Unknown
Elevation
Unknown
Doppler factor
Unknown
Orbital elements
Apogee altitude
476.354 km
Perigee altitude
474.721 km
Semi-major axis
6,853.674 km
Eccentricity
0.00012
Inclination
53.1595°
RAAN
164.7216°
Arg. of periapsis
81.4809°
True anomaly
278.61921°
Mean anomaly
278.6327°
Eccentric anomaly
278.62595°
Mean motion
3.82523 °/min
Orbital period
94.11 mins
BSTAR
-0.000052834
Loading maneuver chart data...
Computing Atmospheric mass density...
Loading historical data...
Loading historical data...
Loading historical data...
Loading historical data...
Loading historical data...
Loading historical data...
Loading historical data...

Documentation

Showing up to 5 results
|